Weather History for KSMO - March, 2014

Change the Weather History Date:

Monday, March 24, 2014

  Actual Average Record
Temperature  
Mean Temperature 62 °F -  
Max Temperature 66 °F 70 °F 89 °F (1988)
Min Temperature 60 °F 51 °F 32 °F (1948)
Degree Days  
Heating Degree Days 3    
Growing Degree Days 12 (Base 50)    
Moisture  
Dew Point 52 °F    
Average Humidity 70    
Maximum Humidity 75    
Minimum Humidity 63    
Precipitation  
Precipitation 0.00 in - - ()
Sea Level Pressure  
Sea Level Pressure 30.07 in    
Wind  
Wind Speed 2 mph (SW)    
Max Wind Speed 10 mph    
Max Gust Speed -    
Visibility 9 miles    
Events      
Averages and records for this station are not official NWS values.
T = Trace of Precipitation, MM = Missing Value Source: NWS Daily Summary

Daily Weather History Graph

Daily Weather History Graph

Search for Another Location

Airport or City:

Trip Planner

Search our weather history database for the weather conditions in past years. The results will help you decide how hot, cold, wet, or windy it might be!

Date:

Astronomy

Mar. 24, 2014 Rise Set
Actual Time 6:51 AM PDT 7:08 PM PDT
Civil Twilight 6:26 AM PDT 7:33 PM PDT
Nautical Twilight 5:57 AM PDT 8:02 PM PDT
Astronomical Twilight 5:28 AM PDT 8:32 PM PDT
Moon 2:11 AM PDT (3/24) 12:53 PM PDT (3/24)
Length of Visible Light 13h 06m
Length of Day
12h 16m
Last Quarter, 42% of the Moon is Illuminated
Mar 24
Last Quarter
Mar 30
New
Apr 7
First Quarter
Apr 15
Full
Apr 22
Last Quarter

Hourly Weather History & Observations

Time (PDT) Temp. Dew Point Humidity Pressure Visibility Wind Dir Wind Speed Gust Speed Precip Events Conditions
12:46 AM 60.8 °F 51.8 °F 72% 30.10 in 10.0 mi Calm Calm - N/A   Overcast
12:51 AM 61.0 °F 52.0 °F 72% 30.10 in 10.0 mi Calm Calm - N/A   Overcast
1:36 AM 60.8 °F 51.8 °F 72% 30.10 in 10.0 mi Calm Calm - N/A   Overcast
1:51 AM 61.0 °F 52.0 °F 72% 30.10 in 10.0 mi South 3.5 mph - N/A   Overcast
2:15 AM 60.8 °F 51.8 °F 72% 30.10 in 10.0 mi Calm Calm - N/A   Overcast
2:51 AM 61.0 °F 52.0 °F 72% 30.09 in 10.0 mi Calm Calm - N/A   Overcast
3:51 AM 61.0 °F 52.0 °F 72% 30.08 in 10.0 mi Calm Calm - N/A   Overcast
4:51 AM 61.0 °F 52.0 °F 72% 30.08 in 9.0 mi Calm Calm - N/A   Overcast
5:51 AM 61.0 °F 51.1 °F 70% 30.09 in 9.0 mi Calm Calm - N/A   Overcast
6:51 AM 61.0 °F 51.1 °F 70% 30.10 in 9.0 mi Calm Calm - N/A   Overcast
7:51 AM 61.0 °F 52.0 °F 72% 30.10 in 6.0 mi East 3.5 mph - N/A   Haze
8:51 AM 61.0 °F 52.0 °F 72% 30.11 in 5.0 mi Variable 3.5 mph - N/A   Haze
9:51 AM 62.1 °F 52.0 °F 70% 30.12 in 5.0 mi SSE 3.5 mph - N/A   Haze
10:51 AM 63.0 °F 52.0 °F 67% 30.12 in 5.0 mi SE 3.5 mph - N/A   Haze
11:51 AM 63.0 °F 52.0 °F 67% 30.12 in 5.0 mi Calm Calm - N/A   Haze
12:51 PM 64.9 °F 52.0 °F 63% 30.10 in 5.0 mi Calm Calm - N/A   Haze
1:51 PM 64.9 °F 52.0 °F 63% 30.07 in 7.0 mi WSW 8.1 mph - N/A   Overcast
2:51 PM 64.9 °F 52.0 °F 63% 30.05 in 10.0 mi West 9.2 mph - N/A   Overcast
3:51 PM 64.9 °F 52.0 °F 63% 30.04 in 10.0 mi SW 10.4 mph - N/A   Mostly Cloudy
4:16 PM 64.4 °F 51.8 °F 64% 30.03 in 10.0 mi WSW 8.1 mph - N/A   Overcast
4:51 PM 63.0 °F 53.1 °F 70% 30.01 in 10.0 mi WSW 9.2 mph - N/A   Overcast
5:51 PM 62.1 °F 53.1 °F 72% 30.01 in 10.0 mi SW 9.2 mph - N/A   Overcast
6:51 PM 62.1 °F 53.1 °F 72% 30.02 in 10.0 mi SW 8.1 mph - N/A   Overcast
7:51 PM 62.1 °F 53.1 °F 72% 30.03 in 10.0 mi SW 8.1 mph - N/A   Overcast
8:51 PM 61.0 °F 53.1 °F 75% 30.04 in 10.0 mi Variable 3.5 mph - N/A   Overcast
9:51 PM 61.0 °F 52.0 °F 72% 30.05 in 10.0 mi Calm Calm - N/A   Overcast
10:51 PM 61.0 °F 53.1 °F 75% 30.06 in 10.0 mi Calm Calm - N/A   Overcast
11:51 PM 61.0 °F 52.0 °F 72% 30.05 in 10.0 mi Calm Calm - N/A   Overcast